Location: Unspecified
(0.0000°N, 0.0000°E)
Time: 06:32:33
(UTC+00:00)

Vanguard 1 - Pass Details

Date: 28 November 2019
Orbit: 652 x 3832 km, 34.3° (Epoch: 10 December)

Event Time Altitude Azimuth Distance (km) Brightness Sun altitude
Rises 15:40:10 0° 313° (NW) 3,046 12.9 29.5°
Reaches altitude 10° 15:42:32 10° 317° (NW) 2,054 12.0 29.0°
Maximum altitude 15:46:52 58° 37° (NE) 776 9.6 28.0°
Drops below altitude 10° 15:51:53 10° 117° (ESE) 2,377 11.8 26.9°
Sets 15:54:49 0° 120° (ESE) 3,587 12.6 26.2°
